[[{"header":{"parameterUnit":"m.s-1","parameterCategory":2,"la1":30.2991,"la2":30.254,"lo1":-89.0895,"lo2":-89.0444,"dy":0.0017,"dx":0.0017,"nx":28,"ny":28,"refTime":"2026-02-16T09:00:00:Z","depth":"0","parameterNumber":2,"parameterNumberName":"U-component_of_CURRENTS"},"data":[0,0,0,0,0,0,0,0,0,0,0,0,0,0,0,0,0,0,0,0,0,0,0,0,0,0,0,0,0,0,0,0,0,0,0,0,0,0,0,0,0,0,0,0,0,0,0,0,0,0,0,0,0,0,0,0,0,0,-0.2255,-0.2256,0,-0.2312,-0.2313,-0.2314,-0.2329,-0.2328,-0.2327,-0.2327,-0.2385,-0.2387,-0.2389,0,0,0,0,0,0,0,0,0,0,0,0,0,-0.2208,-0.2209,-0.2255,-0.2256,-0.2256,-0.2312,-0.2313,-0.2314,-0.2329,-0.2328,-0.2327,-0.2326,-0.2384,-0.2387,-0.2389,0,0,0,0,0,0,0,0,0,0,0,0,0,-0.2247,-0.2209,-0.2255,-0.2267,-0.2268,-0.2312,-0.2313,-0.2315,-0.2329,-0.2328,-0.2327,-0.2326,-0.2383,-0.2386,-0.239,-0.2432,0,0,-0.24,-0.2401,0,0,0,0,0,0,0,0,-0.2245,-0.2249,-0.2265,-0.2266,-0.2268,-0.2309,-0.2318,-0.2353,-0.2329,-0.231,-0.2327,-0.2325,-0.2358,-0.2363,-0.2382,-0.2435,-0.2437,-0.24,-0.2402,-0.2404,-0.2405,0,0,0,0,0,0,0,-0.2242,-0.2247,-0.2282,-0.2265,-0.2267,-0.2286,-0.229,-0.2325,-0.2342,-0.2312,-0.2312,-0.2312,-0.2359,-0.2379,-0.2383,-0.2438,-0.24,-0.2403,-0.2405,-0.2406,-0.2524,-0.2525,0,0,0,0,0,0,-0.2226,-0.2244,-0.228,-0.2283,-0.2249,-0.2287,-0.2292,-0.23,-0.2342,-0.2346,-0.2313,-0.2313,-0.2373,-0.2379,-0.2385,-0.2427,-0.2404,-0.2407,-0.2409,-0.2523,-0.2524,-0.2526,0,0,0,0,0,0,-0.2225,-0.2229,-0.2278,-0.2261,-0.2268,-0.2288,-0.2297,-0.2302,-0.2314,-0.2342,-0.2347,-0.232,-0.2373,-0.2381,-0.2435,-0.2429,-0.2408,-0.2411,-0.2522,-0.2523,-0.2525,-0.2517,0,0,0,0,0,0,-0.2223,-0.2228,-0.2239,-0.226,-0.2268,-0.2299,-0.2298,-0.2303,-0.2314,-0.2314,-0.235,-0.2355,-0.2373,-0.243,-0.2438,-0.2433,-0.2414,-0.252,-0.2522,-0.2524,-0.2516,-0.2518,-0.252,0,0,0,0,0,-0.2222,-0.2247,-0.224,-0.2244,-0.228,-0.2299,-0.2306,-0.2319,-0.2315,-0.2326,-0.2365,-0.2353,-0.2448,-0.2435,-0.2444,-0.244,-0.2519,-0.2522,-0.2524,-0.2515,-0.2518,-0.252,0,0,0,0,0,0,-0.2249,-0.2251,-0.2244,-0.2272,-0.2276,-0.2299,-0.2314,-0.2318,-0.2357,-0.2358,-0.2384,-0.2394,-0.2437,-0.2449,-0.2433,-0.2481,-0.2475,-0.2479,-0.2464,-0.2467,-0.2469,-0.2448,-0.2417,0,0,0,0,0,-0.2254,-0.2261,-0.2265,-0.2285,-0.2285,-0.2296,-0.2308,-0.2312,-0.2342,-0.2356,-0.2379,-0.2413,-0.2457,-0.247,-0.2509,-0.2542,-0.2529,-0.2541,-0.2543,-0.2545,-0.2535,-0.2543,-0.2545,-0.2534,-0.2534,-0.2534,0,0,-0.2269,-0.227,-0.2276,-0.2289,-0.2294,-0.2303,-0.2302,-0.2315,-0.2326,-0.2359,-0.2391,-0.2428,-0.2473,-0.2514,-0.2531,-0.2519,-0.2538,-0.2548,-0.2549,-0.2538,-0.2546,-0.2547,-0.2547,-0.2536,-0.2535,-0.2535,0,0,-0.229,-0.23,-0.2302,-0.2305,-0.2304,-0.2313,-0.2311,-0.2325,-0.2334,-0.2369,-0.2403,-0.2444,-0.249,-0.2528,-0.2553,-0.2592,-0.2558,-0.2591,-0.2573,-0.2581,-0.2581,-0.2581,-0.2541,-0.2537,-0.258,-0.258,-0.258,0,-0.2305,-0.2306,-0.2309,-0.2311,-0.2313,-0.2313,-0.2316,-0.2335,-0.2367,-0.2377,-0.2372,-0.2455,-0.2497,-0.2553,-0.257,-0.2594,-0.2573,-0.2557,-0.2581,-0.2581,-0.2581,-0.254,-0.2536,-0.258,-0.258,-0.258,-0.258,0,-0.2317,-0.2319,-0.2322,-0.2316,-0.233,-0.233,-0.2343,-0.2358,-0.2359,-0.2369,-0.2408,-0.2465,-0.2505,-0.2526,-0.2563,-0.259,-0.2564,-0.2589,-0.2566,-0.2581,-0.2537,-0.2533,-0.258,-0.258,-0.258,-0.258,0,0,-0.2329,-0.2327,-0.2323,-0.2317,-0.2325,-0.2336,-0.2359,-0.2372,-0.2385,-0.2396,-0.2408,-0.2484,-0.2488,-0.2518,-0.2559,-0.2568,-0.256,-0.2572,-0.2572,-0.2515,-0.2531,-0.2472,-0.2461,-0.2582,-0.2582,-0.2582,-0.2489,0,-0.2321,-0.2321,-0.2326,-0.2329,-0.2328,-0.2341,-0.2365,-0.2385,-0.2397,-0.2414,-0.2439,-0.2476,-0.2491,-0.2515,-0.2524,-0.2569,-0.2553,-0.2579,-0.2538,-0.2536,-0.247,-0.2457,-0.2373,-0.2281,-0.2485,-0.2484,-0.2484,0,-0.2318,-0.2314,-0.232,-0.2324,-0.2325,-0.2339,-0.2368,-0.2387,-0.2416,-0.2424,-0.2436,-0.2456,-0.2483,-0.2496,-0.2506,-0.2515,-0.2514,-0.2527,-0.2524,-0.2469,-0.2471,-0.2307,-0.2266,-0.2247,-0.2478,-0.2478,-0.2479,0,-0.2318,-0.2307,-0.231,-0.2313,-0.2331,-0.2341,-0.235,-0.2387,-0.2406,-0.2428,-0.2438,-0.2449,-0.2467,-0.2461,-0.2475,-0.2489,-0.2466,-0.2493,-0.2422,-0.2416,-0.2336,-0.2323,-0.226,-0.2482,-0.2483,-0.2483,-0.2483,0,-0.2313,-0.2307,-0.2308,-0.2315,-0.2324,-0.2336,-0.2357,-0.2378,-0.2401,-0.2415,-0.2437,-0.2448,-0.2464,-0.2454,-0.245,-0.2404,-0.2435,-0.24,-0.2392,-0.2328,-0.2317,-0.2292,-0.2314,-0.2479,-0.248,-0.2481,-0.2481,0,-0.2316,-0.2318,-0.2326,-0.2334,-0.2333,-0.2347,-0.2358,-0.2371,-0.2396,-0.2415,-0.2419,-0.2444,-0.2421,-0.241,-0.2407,-0.2374,-0.23,-0.2325,-0.2221,-0.2203,-0.2112,-0.2138,-0.2056,-0.1997,-0.221,-0.2208,-0.2206,0,-0.2293,-0.23,-0.2339,-0.2349,-0.2351,-0.2356,-0.2362,-0.2377,-0.2383,-0.2407,-0.2409,-0.2404,-0.2383,-0.2323,-0.2269,-0.2197,-0.2219,-0.2087,-0.2115,-0.2073,-0.2097,-0.2118,-0.2076,-0.199,-0.1987,-0.1984,-0.1982,0,-0.2223,-0.2268,-0.2285,-0.2331,-0.2343,-0.2351,-0.2345,-0.2351,-0.2359,-0.2365,-0.2355,-0.234,-0.2287,-0.2181,-0.2095,-0.2049,-0.2028,-0.2028,-0.2026,-0.1942,-0.192,-0.187,-0.206,-0.1958,-0.196,-0.1962,-0.1963,-0.1964,-0.2142,-0.217,-0.2211,-0.2249,-0.2284,-0.2291,-0.2255,-0.2252,-0.223,-0.2176,-0.2246,-0.2184,-0.2119,-0.1985,-0.1925,-0.1797,-0.186,-0.1759,-0.1794,-0.1818,-0.1763,-0.1874,-0.1753,-0.1754,-0.1755,-0.1756,-0.1757,0,-0.1984,-0.2045,-0.2093,-0.2135,-0.215,-0.2197,-0.2186,-0.2114,-0.2031,-0.2042,-0.1999,-0.1967,-0.1845,-0.1793,-0.1676,-0.1594,-0.1558,-0.1559,-0.1577,-0.1546,-0.1665,-0.1658,-0.1462,-0.1462,-0.1462,-0.1462,-0.1462,-0.1462,-0.1894,-0.1906,-0.1964,-0.1944,-0.1982,-0.1923,-0.1891,-0.1821,-0.1786,-0.1687,-0.1681,-0.1721,-0.1687,-0.1736,-0.1595,-0.1507,-0.1472,-0.1424,-0.1447,-0.1555,-0.1577,-0.1598,-0.1596,-0.139,-0.139,-0.1269,-0.1269,-0.1268]},{"header":{"parameterUnit":"m.s-1","parameterCategory":2,"la1":30.2991,"la2":30.254,"lo1":-89.0895,"lo2":-89.0444,"dy":0.0017,"dx":0.0017,"nx":28,"ny":28,"refTime":"2026-02-16T09:00:00:Z","depth":"0","parameterNumber":3,"parameterNumberName":"V-component_of_CURRENTS"},"data":[0,0,0,0,0,0,0,0,0,0,0,0,0,0,0,0,0,0,0,0,0,0,0,0,0,0,0,0,0,0,0,0,0,0,0,0,0,0,0,0,0,0,0,0,0,0,0,0,0,0,0,0,0,0,0,0,0,0,-0.0168,-0.0168,0,-0.0077,-0.0076,-0.0074,0.0022,0.0022,0.0023,0.0024,0.0352,0.0359,0.0367,0,0,0,0,0,0,0,0,0,0,0,0,0,-0.0171,-0.0171,-0.0168,-0.0168,-0.0167,-0.0078,-0.0076,-0.0074,0.0022,0.0022,0.0023,0.0024,0.0349,0.0359,0.0368,0,0,0,0,0,0,0,0,0,0,0,0,0,-0.0127,-0.0171,-0.0168,-0.0114,-0.0109,-0.0078,-0.0076,-0.0073,0.0021,0.0022,0.0023,0.0024,0.0346,0.0358,0.037,0.0423,0,0,0.0407,0.0412,0,0,0,0,0,0,0,0,-0.013,-0.0127,-0.0122,-0.0118,-0.0112,-0.0044,0.0043,0.0102,0.0021,-0.0021,0.0024,0.0025,0.0236,0.0257,0.0278,0.0439,0.0453,0.0408,0.0415,0.042,0.0424,0,0,0,0,0,0,0,-0.0133,-0.0129,-0.0125,-0.0122,-0.0116,-0.0064,-0.0057,0.0055,0.0111,-0.0017,-0.0012,-0.0013,0.0242,0.0266,0.0287,0.0457,0.0407,0.0418,0.0426,0.043,0.0743,0.0744,0,0,0,0,0,0,-0.0165,-0.0133,-0.0128,-0.0123,-0.0126,-0.0066,-0.0057,-0.0061,0.0104,0.0126,-0.0014,-0.0009,0.0245,0.0273,0.03,0.0385,0.042,0.0431,0.0438,0.0742,0.0743,0.0744,0,0,0,0,0,0,-0.0165,-0.0165,-0.0132,-0.0131,-0.0124,-0.0069,-0.0073,-0.006,-0.0034,0.0103,0.0131,-0.0002,0.0247,0.0283,0.0411,0.0399,0.0437,0.0448,0.074,0.0742,0.0743,0.0551,0,0,0,0,0,0,-0.0165,-0.0166,-0.0168,-0.0134,-0.0126,-0.0122,-0.0074,-0.0059,-0.004,-0.0032,0.0123,0.0154,0.0251,0.0392,0.0423,0.0416,0.0457,0.0739,0.0741,0.0743,0.0556,0.0545,0.0537,0,0,0,0,0,-0.0166,-0.0168,-0.0169,-0.0168,-0.0135,-0.0124,-0.0114,-0.0065,-0.0041,-0.0036,0.0082,0.0149,0.0426,0.0403,0.0439,0.0435,0.0738,0.0741,0.0743,0.056,0.0547,0.0537,0,0,0,0,0,0,-0.0146,-0.0158,-0.0158,-0.0158,-0.0153,-0.011,-0.0095,-0.0075,0.0015,0.0038,0.0168,0.0208,0.0315,0.0412,0.0383,0.0536,0.0592,0.0601,0.044,0.043,0.0421,0.0379,0.0467,0,0,0,0,0,-0.0156,-0.0172,-0.0171,-0.017,-0.0173,-0.0141,-0.0127,-0.0105,-0.0033,0.0005,0.0103,0.0232,0.0351,0.0418,0.0536,0.0621,0.0686,0.0646,0.0636,0.0626,0.0621,0.0725,0.0723,0.0752,0.0752,0.0752,0,0,-0.0144,-0.0157,-0.0161,-0.017,-0.0156,-0.0167,-0.0127,-0.0116,-0.0113,0.0033,0.0093,0.0205,0.037,0.0462,0.0518,0.0541,0.0643,0.0629,0.0619,0.062,0.0727,0.0724,0.0721,0.0753,0.0753,0.0753,0,0,-0.0154,-0.0149,-0.018,-0.0186,-0.0194,-0.0176,-0.0185,-0.0159,-0.0131,-0.0072,0.0041,0.0145,0.0308,0.0414,0.0495,0.0512,0.0591,0.0546,0.046,0.056,0.0557,0.0556,0.057,0.0572,0.0537,0.0536,0.0536,0,-0.0139,-0.0186,-0.0181,-0.0216,-0.0221,-0.0192,-0.0219,-0.019,-0.0125,-0.0095,-0.0069,0.016,0.0286,0.0413,0.041,0.0486,0.0526,0.0476,0.0541,0.0542,0.0543,0.056,0.0564,0.0527,0.0528,0.0529,0.053,0,-0.0193,-0.0219,-0.0232,-0.0276,-0.0274,-0.0288,-0.0271,-0.0255,-0.0223,-0.0189,-0.0085,0.0066,0.0202,0.0248,0.0335,0.0412,0.0425,0.051,0.0549,0.0527,0.0548,0.0555,0.0514,0.0517,0.052,0.0522,0,0,-0.0183,-0.0259,-0.0266,-0.0298,-0.031,-0.0316,-0.0309,-0.0293,-0.0278,-0.0219,-0.0182,-0.0013,0.0046,0.0143,0.0254,0.0327,0.0349,0.0398,0.0407,0.0372,0.0497,0.0517,0.0528,0.0435,0.0437,0.0439,0.048,0,-0.0228,-0.0318,-0.0335,-0.0386,-0.042,-0.0393,-0.0389,-0.0361,-0.0316,-0.0271,-0.0147,-0.0051,0.0013,0.0077,0.0151,0.0323,0.0372,0.0326,0.056,0.0566,0.0556,0.0541,0.0565,0.0608,0.0488,0.049,0.0491,0,-0.0283,-0.0338,-0.0412,-0.0453,-0.0463,-0.0478,-0.0459,-0.0453,-0.0377,-0.0338,-0.0255,-0.0154,-0.0043,0.0029,0.0229,0.0189,0.0318,0.0429,0.0436,0.0535,0.0604,0.0631,0.0628,0.0764,0.0504,0.0503,0.0502,0,-0.0295,-0.0383,-0.0446,-0.0463,-0.0501,-0.051,-0.0515,-0.0466,-0.0455,-0.0372,-0.0343,-0.0213,-0.0118,0.0034,0.0233,0.0237,0.0447,0.0504,0.0628,0.0628,0.074,0.0747,0.0874,0.0654,0.0654,0.0654,0.0654,0,-0.0331,-0.0367,-0.0462,-0.0488,-0.0538,-0.0548,-0.0563,-0.0541,-0.0505,-0.0486,-0.0378,-0.032,-0.0103,0.0041,0.0198,0.0411,0.0424,0.06,0.0657,0.0668,0.0669,0.0871,0.0925,0.0656,0.0655,0.0655,0.0655,0,-0.0295,-0.0373,-0.0431,-0.0509,-0.0543,-0.0561,-0.061,-0.0617,-0.0579,-0.055,-0.0526,-0.0385,-0.0206,-0.0008,0.0266,0.039,0.0675,0.0677,0.0623,0.0673,0.0894,0.0936,0.1122,0.1199,0.0787,0.0788,0.0789,0,-0.0278,-0.0319,-0.0434,-0.049,-0.0523,-0.058,-0.0625,-0.0641,-0.0651,-0.0586,-0.0571,-0.0398,-0.0263,0.0083,0.0348,0.0598,0.0744,0.0777,0.0819,0.0897,0.0987,0.1017,0.107,0.0859,0.0861,0.0862,0.0863,0,-0.023,-0.0275,-0.0334,-0.0458,-0.0538,-0.0621,-0.0688,-0.072,-0.0728,-0.0701,-0.0628,-0.0514,-0.0175,0.0133,0.0471,0.0634,0.0859,0.0807,0.0948,0.1093,0.1081,0.1185,0.0774,0.0873,0.0872,0.0871,0.087,0.087,-0.018,-0.0219,-0.0334,-0.0438,-0.0532,-0.0651,-0.072,-0.0784,-0.0817,-0.0788,-0.0666,-0.0477,-0.0025,0.0456,0.0629,0.0999,0.0978,0.1127,0.1172,0.1195,0.1281,0.0837,0.0977,0.0977,0.0976,0.0976,0.0976,0,-0.0153,-0.024,-0.0326,-0.0474,-0.0567,-0.063,-0.0761,-0.0828,-0.0883,-0.0787,-0.069,-0.0204,0.0234,0.0645,0.1162,0.1359,0.141,0.1459,0.1528,0.1569,0.1241,0.1258,0.1395,0.1395,0.1395,0.1394,0.1394,0.1394,-0.0161,-0.0258,-0.0326,-0.0495,-0.0587,-0.0726,-0.0808,-0.0891,-0.0861,-0.0704,-0.0446,-0.0214,0.0403,0.1203,0.1669,0.1713,0.1877,0.1856,0.1945,0.1735,0.1708,0.1682,0.1713,0.1943,0.1944,0.2269,0.2272,0.2275]}],[{"header":{"parameterUnit":"m.s-1","parameterCategory":2,"la1":30.2991,"la2":30.254,"lo1":-89.0895,"lo2":-89.0444,"dy":0.0017,"dx":0.0017,"nx":28,"ny":28,"refTime":"2026-02-16T09:00:00:Z","depth":"2","parameterNumber":2,"parameterNumberName":"U-component_of_CURRENTS"},"data":[0,0,0,0,0,0,0,0,0,0,0,0,0,0,0,0,0,0,0,0,0,0,0,0,0,0,0,0,0,0,0,0,0,0,0,0,0,0,0,0,0,0,0,0,0,0,0,0,0,0,0,0,0,0,0,0,0,0,-0.1914,-0.1915,0,-0.1955,-0.1955,-0.1956,-0.1953,-0.1953,-0.1952,-0.1952,-0.1985,-0.1986,-0.1988,0,0,0,0,0,0,0,0,0,0,0,0,0,-0.186,-0.1861,-0.1914,-0.1915,-0.1915,-0.1955,-0.1955,-0.1956,-0.1953,-0.1953,-0.1952,-0.1951,-0.1985,-0.1986,-0.1988,0,0,0,0,0,0,0,0,0,0,0,0,0,-0.189,-0.1861,-0.1914,-0.1919,-0.192,-0.1954,-0.1955,-0.1956,-0.1953,-0.1953,-0.1952,-0.1951,-0.1984,-0.1986,-0.1988,-0.2019,0,0,-0.1995,-0.1996,0,0,0,0,0,0,0,0,-0.1888,-0.1892,-0.1918,-0.1919,-0.192,-0.1948,-0.1948,-0.1977,-0.1954,-0.1941,-0.1952,-0.1951,-0.1973,-0.1976,-0.1985,-0.202,-0.2022,-0.1995,-0.1996,-0.1997,-0.1998,0,0,0,0,0,0,0,-0.1886,-0.1891,-0.193,-0.1919,-0.192,-0.1928,-0.1931,-0.1954,-0.1961,-0.1942,-0.1942,-0.1947,-0.1973,-0.1983,-0.1986,-0.2022,-0.1995,-0.1997,-0.1998,-0.1999,-0.208,-0.2081,0,0,0,0,0,0,-0.1882,-0.1889,-0.1929,-0.1931,-0.1902,-0.1929,-0.1933,-0.194,-0.1961,-0.1963,-0.1947,-0.1946,-0.198,-0.1983,-0.1987,-0.2021,-0.1997,-0.1999,-0.2,-0.2079,-0.208,-0.2081,0,0,0,0,0,0,-0.188,-0.1885,-0.1927,-0.1911,-0.1917,-0.1931,-0.1939,-0.1941,-0.1951,-0.1965,-0.1967,-0.1955,-0.1979,-0.1984,-0.2008,-0.2022,-0.2,-0.2002,-0.2078,-0.2079,-0.208,-0.209,0,0,0,0,0,0,-0.1879,-0.1884,-0.189,-0.1911,-0.1917,-0.1949,-0.194,-0.1942,-0.1956,-0.1955,-0.1973,-0.1975,-0.1979,-0.2005,-0.201,-0.2024,-0.2004,-0.2077,-0.2078,-0.208,-0.2088,-0.2091,-0.2094,0,0,0,0,0,-0.1877,-0.1885,-0.189,-0.1895,-0.1924,-0.1949,-0.1954,-0.1961,-0.1957,-0.1966,-0.1976,-0.1974,-0.2019,-0.2008,-0.2014,-0.2028,-0.2076,-0.2078,-0.208,-0.2087,-0.2091,-0.2094,0,0,0,0,0,0,-0.1864,-0.1886,-0.1891,-0.1906,-0.1927,-0.1949,-0.1957,-0.1965,-0.1982,-0.1979,-0.1988,-0.1992,-0.2019,-0.2025,-0.2013,-0.2057,-0.2047,-0.205,-0.205,-0.2054,-0.2056,-0.2051,-0.2005,0,0,0,0,0,-0.1864,-0.1873,-0.19,-0.191,-0.1922,-0.1942,-0.1953,-0.1961,-0.1978,-0.1984,-0.1997,-0.2013,-0.2034,-0.2043,-0.2063,-0.2089,-0.2082,-0.2102,-0.2105,-0.2107,-0.2108,-0.2113,-0.2116,-0.2087,-0.2087,-0.2087,0,0,-0.1856,-0.1874,-0.1875,-0.1908,-0.1922,-0.1947,-0.1946,-0.1965,-0.1984,-0.1986,-0.2012,-0.2025,-0.2044,-0.2071,-0.2084,-0.2076,-0.211,-0.211,-0.2111,-0.2111,-0.2116,-0.2118,-0.2121,-0.2089,-0.2088,-0.2088,0,0,-0.1854,-0.1867,-0.1878,-0.1902,-0.1931,-0.1948,-0.1955,-0.1984,-0.1993,-0.2022,-0.2029,-0.2049,-0.208,-0.2096,-0.2108,-0.214,-0.2126,-0.2146,-0.2153,-0.2159,-0.2161,-0.2162,-0.2144,-0.2145,-0.2144,-0.2144,-0.2144,0,-0.1846,-0.1868,-0.1886,-0.1912,-0.1929,-0.195,-0.1972,-0.1993,-0.2024,-0.2034,-0.203,-0.2076,-0.2093,-0.2126,-0.2136,-0.2146,-0.2135,-0.2137,-0.2161,-0.2162,-0.2164,-0.2145,-0.2145,-0.2145,-0.2145,-0.2145,-0.2145,0,-0.186,-0.188,-0.189,-0.1929,-0.1952,-0.1972,-0.2006,-0.2027,-0.2039,-0.2055,-0.2085,-0.2105,-0.2128,-0.2141,-0.2149,-0.2175,-0.2159,-0.2164,-0.2148,-0.2167,-0.2146,-0.2146,-0.2146,-0.2145,-0.2145,-0.2145,0,0,-0.1832,-0.1887,-0.1891,-0.1913,-0.1961,-0.1981,-0.2016,-0.2051,-0.2071,-0.2093,-0.2112,-0.215,-0.2151,-0.2165,-0.2177,-0.2185,-0.2189,-0.2178,-0.2178,-0.2152,-0.2179,-0.2118,-0.2112,-0.2193,-0.2194,-0.2194,-0.2155,0,-0.1837,-0.188,-0.191,-0.1948,-0.1972,-0.2007,-0.2038,-0.2071,-0.2095,-0.212,-0.2136,-0.2161,-0.2163,-0.2173,-0.2182,-0.2194,-0.2191,-0.2197,-0.2172,-0.2171,-0.2109,-0.2111,-0.196,-0.1909,-0.2155,-0.2155,-0.2155,0,-0.1839,-0.1871,-0.1906,-0.1959,-0.1973,-0.2,-0.2047,-0.2079,-0.212,-0.2136,-0.2156,-0.2169,-0.219,-0.2187,-0.2194,-0.2196,-0.2187,-0.2188,-0.2186,-0.2126,-0.211,-0.1934,-0.1899,-0.2154,-0.2154,-0.2154,-0.2154,0,-0.1803,-0.1866,-0.1889,-0.1909,-0.1975,-0.1995,-0.2028,-0.2077,-0.2105,-0.2144,-0.2162,-0.218,-0.2193,-0.2189,-0.2185,-0.2191,-0.218,-0.2187,-0.2119,-0.2114,-0.1979,-0.1961,-0.2185,-0.2185,-0.2185,-0.2186,-0.2186,0,-0.1787,-0.1807,-0.1875,-0.1888,-0.1919,-0.1975,-0.201,-0.2045,-0.21,-0.2126,-0.2163,-0.2178,-0.2196,-0.2193,-0.2181,-0.2138,-0.2172,-0.2114,-0.2102,-0.1977,-0.196,-0.2174,-0.2173,-0.2184,-0.2184,-0.2185,-0.2185,0,-0.1724,-0.1776,-0.1803,-0.1872,-0.1897,-0.1913,-0.1993,-0.2016,-0.2081,-0.2115,-0.2127,-0.2178,-0.217,-0.2169,-0.2162,-0.2129,-0.21,-0.2076,-0.1916,-0.1885,-0.2028,-0.2029,-0.1993,-0.199,-0.1988,-0.1986,-0.1985,0,-0.1688,-0.1696,-0.1765,-0.178,-0.1807,-0.1856,-0.1885,-0.198,-0.2012,-0.2105,-0.2109,-0.2137,-0.2128,-0.2089,-0.2032,-0.1975,-0.2043,-0.1807,-0.1798,-0.2018,-0.201,-0.2014,-0.2017,-0.1616,-0.1611,-0.1608,-0.1605,0,-0.1605,-0.1629,-0.1649,-0.1681,-0.1716,-0.1761,-0.1819,-0.1853,-0.1958,-0.2001,-0.2044,-0.2052,-0.2027,-0.1901,-0.1833,-0.1783,-0.1803,-0.1733,-0.1997,-0.1696,-0.1661,-0.1655,-0.167,-0.1573,-0.1576,-0.1579,-0.158,-0.1582,-0.1526,-0.1514,-0.1542,-0.1563,-0.1605,-0.1637,-0.1638,-0.172,-0.1766,-0.1806,-0.1898,-0.1859,-0.1839,-0.1662,-0.1571,-0.1495,-0.1625,-0.1547,-0.1558,-0.1573,-0.1545,-0.151,-0.1386,-0.1388,-0.1389,-0.1391,-0.1392,0,-0.1419,-0.1421,-0.1424,-0.1448,-0.1441,-0.1511,-0.1563,-0.1546,-0.1559,-0.1628,-0.1649,-0.1489,-0.1409,-0.1392,-0.1233,-0.1201,-0.1189,-0.1143,-0.1129,-0.1161,-0.119,-0.1143,-0.0876,-0.0874,-0.0873,-0.0871,0,0,-0.1372,-0.1333,-0.1333,-0.1281,-0.1294,-0.1256,-0.1261,-0.1256,-0.1278,-0.1256,-0.1247,-0.1354,-0.1372,-0.1133,-0.1067,-0.095,-0.1046,-0.0899,-0.1315,-0.1332,-0.1359,-0.1424,-0.1387,0,0,0,0,0]},{"header":{"parameterUnit":"m.s-1","parameterCategory":2,"la1":30.2991,"la2":30.254,"lo1":-89.0895,"lo2":-89.0444,"dy":0.0017,"dx":0.0017,"nx":28,"ny":28,"refTime":"2026-02-16T09:00:00:Z","depth":"2","parameterNumber":3,"parameterNumberName":"V-component_of_CURRENTS"},"data":[0,0,0,0,0,0,0,0,0,0,0,0,0,0,0,0,0,0,0,0,0,0,0,0,0,0,0,0,0,0,0,0,0,0,0,0,0,0,0,0,0,0,0,0,0,0,0,0,0,0,0,0,0,0,0,0,0,0,-0.0291,-0.0291,0,-0.0217,-0.0216,-0.0215,-0.0141,-0.0141,-0.014,-0.014,0.0056,0.006,0.0065,0,0,0,0,0,0,0,0,0,0,0,0,0,-0.0295,-0.0295,-0.0291,-0.0291,-0.029,-0.0217,-0.0216,-0.0214,-0.0142,-0.0141,-0.014,-0.0139,0.0054,0.006,0.0065,0,0,0,0,0,0,0,0,0,0,0,0,0,-0.0261,-0.0295,-0.0291,-0.0248,-0.0243,-0.0217,-0.0216,-0.0214,-0.0142,-0.0141,-0.014,-0.0139,0.0052,0.0059,0.0066,0.0091,0,0,0.0087,0.009,0,0,0,0,0,0,0,0,-0.0263,-0.026,-0.0255,-0.0251,-0.0246,-0.0191,-0.0146,-0.0107,-0.0142,-0.0176,-0.014,-0.0139,-0.0019,-0.0006,0.001,0.0101,0.0109,0.0088,0.0092,0.0095,0.0097,0,0,0,0,0,0,0,-0.0265,-0.0263,-0.0258,-0.0254,-0.0249,-0.0207,-0.0201,-0.0138,-0.0098,-0.0173,-0.0169,-0.0167,-0.0015,0.0003,0.0015,0.0112,0.0088,0.0094,0.0098,0.0101,0.0276,0.0276,0,0,0,0,0,0,-0.0288,-0.0265,-0.026,-0.0256,-0.0257,-0.0208,-0.0201,-0.0206,-0.0101,-0.0086,-0.0168,-0.0164,-0.0009,0.0007,0.0023,0.0074,0.0095,0.0102,0.0106,0.0275,0.0276,0.0276,0,0,0,0,0,0,-0.0288,-0.0288,-0.0263,-0.0261,-0.0256,-0.021,-0.0215,-0.0205,-0.0185,-0.0099,-0.0081,-0.0158,-0.0008,0.0013,0.0081,0.0082,0.0105,0.0111,0.0275,0.0275,0.0276,0.0168,0,0,0,0,0,0,-0.0289,-0.0289,-0.0296,-0.0263,-0.0257,-0.0254,-0.0216,-0.0205,-0.0188,-0.0182,-0.0085,-0.0066,-0.0006,0.007,0.0088,0.0092,0.0117,0.0274,0.0275,0.0276,0.0171,0.0165,0.016,0,0,0,0,0,-0.0289,-0.0303,-0.0297,-0.0296,-0.027,-0.0255,-0.0247,-0.0208,-0.0189,-0.0185,-0.0116,-0.0069,0.0088,0.0076,0.0097,0.0103,0.0274,0.0275,0.0276,0.0174,0.0166,0.016,0,0,0,0,0,0,-0.0303,-0.0296,-0.0289,-0.0299,-0.0283,-0.0244,-0.0237,-0.0215,-0.0161,-0.0148,-0.0065,-0.0042,0.0019,0.0078,0.0061,0.0158,0.019,0.0195,0.0105,0.0099,0.0094,0.0069,0.0123,0,0,0,0,0,-0.0315,-0.0326,-0.0309,-0.0317,-0.0312,-0.0277,-0.0265,-0.0243,-0.0196,-0.0172,-0.011,-0.0032,0.0039,0.008,0.0148,0.0198,0.0246,0.0219,0.0213,0.0207,0.0203,0.0275,0.0274,0.028,0.028,0.028,0,0,-0.0325,-0.0322,-0.0328,-0.0322,-0.0303,-0.0302,-0.0266,-0.0255,-0.0248,-0.0157,-0.012,-0.0051,0.0048,0.0103,0.0137,0.0153,0.0229,0.0209,0.0203,0.0202,0.0276,0.0275,0.0274,0.028,0.028,0.028,0,0,-0.0349,-0.0346,-0.0362,-0.0355,-0.0341,-0.0321,-0.0324,-0.0291,-0.0268,-0.0231,-0.0159,-0.0092,0.0004,0.0074,0.0124,0.0131,0.0194,0.0154,0.0108,0.0177,0.0176,0.0177,0.0216,0.0221,0.0153,0.0152,0.0152,0,-0.036,-0.0379,-0.0363,-0.0373,-0.0371,-0.0336,-0.0347,-0.0321,-0.0271,-0.0249,-0.0229,-0.0085,-0.0008,0.0075,0.0074,0.0117,0.0154,0.0119,0.0166,0.0168,0.017,0.0211,0.0217,0.0147,0.0148,0.0148,0.0149,0,-0.0394,-0.0408,-0.0415,-0.042,-0.0414,-0.0418,-0.0391,-0.0376,-0.0346,-0.0313,-0.0242,-0.0145,-0.0057,-0.0024,0.0027,0.0085,0.0103,0.0144,0.0173,0.0162,0.0207,0.0215,0.014,0.0142,0.0143,0.0145,0,0,-0.0424,-0.0438,-0.0439,-0.0454,-0.044,-0.0442,-0.0431,-0.0408,-0.0395,-0.034,-0.0309,-0.0198,-0.0151,-0.0091,-0.0015,0.0041,0.008,0.0085,0.0091,0.0104,0.0206,0.0212,0.0222,0.0123,0.0125,0.0126,0.0222,0,-0.0454,-0.0489,-0.0483,-0.0512,-0.0528,-0.0498,-0.0492,-0.0464,-0.0426,-0.0387,-0.0289,-0.0225,-0.0174,-0.013,-0.007,0.0051,0.0101,0.0049,0.0233,0.0238,0.0229,0.0233,0.0196,0.0279,0.0231,0.0233,0.0234,0,-0.0489,-0.0509,-0.0545,-0.0564,-0.0566,-0.0574,-0.0557,-0.0547,-0.0481,-0.0448,-0.0376,-0.03,-0.0203,-0.0158,0.0013,-0.0027,0.0074,0.0159,0.0166,0.0217,0.026,0.0291,0.0298,0.0249,0.0248,0.0247,0.0246,0,-0.0526,-0.0553,-0.0586,-0.0593,-0.0603,-0.0608,-0.0605,-0.0562,-0.0553,-0.0481,-0.0457,-0.0339,-0.0265,-0.0136,0.0024,0.0023,0.0207,0.024,0.0338,0.0339,0.0369,0.037,0.0361,0.0361,0.0361,0.036,0.036,0,-0.0569,-0.0596,-0.0607,-0.063,-0.0665,-0.0649,-0.0666,-0.0645,-0.0602,-0.0585,-0.049,-0.0442,-0.0255,-0.013,0.0006,0.0187,0.0199,0.0327,0.037,0.0329,0.0325,0.0355,0.0353,0.0364,0.0363,0.0362,0.0362,0,-0.0619,-0.062,-0.0667,-0.0684,-0.069,-0.0718,-0.0724,-0.073,-0.068,-0.0654,-0.0632,-0.0504,-0.0341,-0.0162,0.0065,0.0174,0.0345,0.041,0.0329,0.036,0.0431,0.0422,0.0526,0.0527,0.0528,0.0529,0.0529,0,-0.0655,-0.0681,-0.0718,-0.0749,-0.0764,-0.0791,-0.0808,-0.0777,-0.0776,-0.0691,-0.0679,-0.0521,-0.0403,-0.0095,0.0126,0.0359,0.0381,0.0461,0.0464,0.042,0.0451,0.0441,0.0432,0.0457,0.0457,0.0457,0.0457,0,-0.0727,-0.0731,-0.0767,-0.0829,-0.0861,-0.0897,-0.0911,-0.0919,-0.0867,-0.0825,-0.0739,-0.0635,-0.0341,-0.0095,0.0201,0.0337,0.0415,0.0469,0.0472,0.0412,0.0361,0.0389,0.0382,0.0457,0.0457,0.0457,0.0457,0.0457,-0.0774,-0.0814,-0.0851,-0.0909,-0.0954,-0.0992,-0.1014,-0.1003,-0.0986,-0.09,-0.0792,-0.061,-0.0367,0.0048,0.0254,0.0449,0.0458,0.0517,0.0515,0.0513,0.0479,0.0432,0.0534,0.0534,0.0534,0.0535,0.0535,0,-0.0824,-0.086,-0.0928,-0.0989,-0.105,-0.1051,-0.1076,-0.1069,-0.1042,-0.0916,-0.08,-0.0525,-0.0241,0.0019,0.0323,0.0504,0.0498,0.0535,0.0491,0.049,0.0489,0.0452,0.0501,0.0501,0.0502,0.0502,0,0,-0.0848,-0.0909,-0.094,-0.1049,-0.1099,-0.1152,-0.1164,-0.1129,-0.1043,-0.0912,-0.0758,-0.055,-0.0233,-0.0026,0.02,0.0359,0.038,0.0376,0.0384,0.0303,0.03,0.0458,0.0398,0,0,0,0,0]}],[{"header":{"parameterUnit":"m.s-1","parameterCategory":2,"la1":30.2991,"la2":30.254,"lo1":-89.0895,"lo2":-89.0444,"dy":0.0017,"dx":0.0017,"nx":28,"ny":28,"refTime":"2026-02-16T09:00:00:Z","depth":"4","parameterNumber":2,"parameterNumberName":"U-component_of_CURRENTS"},"data":[0,0,0,0,0,0,0,0,0,0,0,0,0,0,0,0,0,0,0,0,0,0,0,0,0,0,0,0,0,0,0,0,0,0,0,0,0,0,0,0,0,0,0,0,0,0,0,0,0,0,0,0,0,0,0,0,0,0,-0.1309,-0.131,0,-0.1365,-0.1366,-0.1366,-0.1397,-0.1397,-0.1398,-0.1398,-0.1381,-0.1381,-0.138,0,0,0,0,0,0,0,0,0,0,0,0,0,-0.1238,-0.1239,-0.1309,-0.131,-0.1311,-0.1365,-0.1366,-0.1366,-0.1397,-0.1397,-0.1398,-0.1398,-0.1382,-0.1381,-0.138,0,0,0,0,0,0,0,0,0,0,0,0,0,-0.1278,-0.1239,-0.1309,-0.1334,-0.1337,-0.1365,-0.1366,-0.1366,-0.1397,-0.1397,-0.1398,-0.1398,-0.1382,-0.1381,-0.138,-0.1368,0,0,-0.1377,-0.1377,0,0,0,0,0,0,0,0,-0.1275,-0.128,-0.1329,-0.1332,-0.1335,-0.1376,-0.1335,-0.1364,-0.1397,-0.1373,-0.1398,-0.1398,-0.1373,-0.1373,-0.1382,-0.1367,-0.1366,-0.1377,-0.1376,-0.1376,-0.1376,0,0,0,0,0,0,0,-0.1273,-0.1278,-0.133,-0.133,-0.1334,-0.1345,-0.1351,-0.1341,-0.1368,-0.1375,-0.1378,-0.1386,-0.1375,-0.1383,-0.1382,-0.1366,-0.1377,-0.1376,-0.1376,-0.1375,-0.1404,-0.1406,0,0,0,0,0,0,-0.1268,-0.1275,-0.1328,-0.1332,-0.1307,-0.1346,-0.1353,-0.1361,-0.137,-0.1373,-0.1386,-0.1387,-0.1385,-0.1383,-0.1381,-0.143,-0.1376,-0.1375,-0.1375,-0.1403,-0.1405,-0.1406,0,0,0,0,0,0,-0.1266,-0.1272,-0.1326,-0.1306,-0.1314,-0.1347,-0.1357,-0.1362,-0.1394,-0.1379,-0.138,-0.1414,-0.1385,-0.1383,-0.1402,-0.1427,-0.1375,-0.1374,-0.1401,-0.1404,-0.1405,-0.1486,0,0,0,0,0,0,-0.1264,-0.1271,-0.1286,-0.1305,-0.1315,-0.1358,-0.1357,-0.1363,-0.1398,-0.1401,-0.1403,-0.1401,-0.1385,-0.1404,-0.1401,-0.1425,-0.1373,-0.14,-0.1402,-0.1405,-0.1482,-0.1491,-0.1499,0,0,0,0,0,-0.1261,-0.1271,-0.1286,-0.1293,-0.1331,-0.1359,-0.1365,-0.1388,-0.1399,-0.1417,-0.1427,-0.1402,-0.1417,-0.1404,-0.1401,-0.1425,-0.1398,-0.1402,-0.1405,-0.1478,-0.1489,-0.1498,0,0,0,0,0,0,-0.1241,-0.1276,-0.1293,-0.1312,-0.1344,-0.1365,-0.1384,-0.1403,-0.1427,-0.1434,-0.142,-0.1419,-0.1446,-0.1424,-0.141,-0.1441,-0.1403,-0.1406,-0.146,-0.147,-0.1479,-0.1472,-0.1372,0,0,0,0,0,-0.1246,-0.1266,-0.1301,-0.1317,-0.1336,-0.1367,-0.1386,-0.1406,-0.1425,-0.1438,-0.1444,-0.1447,-0.1452,-0.1454,-0.1453,-0.1467,-0.1446,-0.148,-0.1488,-0.1496,-0.1489,-0.1491,-0.1499,-0.1416,-0.1416,-0.1416,0,0,-0.1239,-0.1263,-0.1273,-0.1316,-0.1341,-0.1374,-0.1379,-0.1415,-0.1447,-0.1429,-0.1474,-0.1478,-0.1464,-0.1488,-0.1496,-0.1475,-0.1512,-0.1499,-0.1506,-0.1495,-0.1495,-0.1503,-0.151,-0.1418,-0.1418,-0.1417,0,0,-0.1236,-0.1263,-0.1286,-0.1318,-0.1368,-0.1389,-0.1407,-0.145,-0.1476,-0.1516,-0.1516,-0.1539,-0.1545,-0.1548,-0.1545,-0.1595,-0.1559,-0.1596,-0.1629,-0.1633,-0.1639,-0.1645,-0.1641,-0.1646,-0.1597,-0.1597,-0.1597,0,-0.1231,-0.1267,-0.1296,-0.1332,-0.1361,-0.14,-0.1435,-0.1466,-0.1513,-0.1532,-0.1539,-0.1575,-0.1572,-0.1594,-0.1619,-0.1614,-0.1605,-0.1594,-0.1643,-0.1648,-0.1652,-0.1647,-0.1651,-0.1601,-0.1601,-0.16,-0.16,0,-0.1249,-0.1289,-0.1304,-0.1365,-0.1398,-0.1434,-0.1482,-0.1523,-0.1559,-0.1585,-0.1631,-0.1641,-0.1656,-0.1669,-0.1659,-0.1692,-0.1674,-0.1658,-0.1617,-0.1665,-0.1657,-0.166,-0.1607,-0.1606,-0.1604,-0.1603,0,0,-0.1207,-0.1301,-0.131,-0.1348,-0.1422,-0.1448,-0.1505,-0.156,-0.1595,-0.1645,-0.1682,-0.1716,-0.1725,-0.1723,-0.1724,-0.1734,-0.1771,-0.1714,-0.1712,-0.1709,-0.1777,-0.1659,-0.165,-0.1765,-0.1766,-0.1766,-0.1764,0,-0.1217,-0.1288,-0.1334,-0.14,-0.1438,-0.1494,-0.1539,-0.1593,-0.1637,-0.1683,-0.1708,-0.1742,-0.1744,-0.176,-0.1774,-0.177,-0.1779,-0.1773,-0.173,-0.1729,-0.1617,-0.165,-0.1768,-0.1765,-0.1766,-0.1766,-0.1766,0,-0.122,-0.1272,-0.134,-0.1424,-0.1447,-0.1491,-0.1566,-0.1615,-0.1679,-0.1712,-0.1753,-0.177,-0.1805,-0.1796,-0.1813,-0.181,-0.1799,-0.1794,-0.1793,-0.165,-0.1615,-0.1703,-0.177,-0.177,-0.177,-0.1769,-0.1769,0,-0.1171,-0.127,-0.1325,-0.1356,-0.1457,-0.1497,-0.1551,-0.1623,-0.1664,-0.1732,-0.1762,-0.18,-0.1824,-0.1825,-0.182,-0.1821,-0.1822,-0.1817,-0.1702,-0.1694,-0.1764,-0.1758,-0.1821,-0.1821,-0.1821,-0.1821,-0.1821,0,-0.1151,-0.1197,-0.1312,-0.134,-0.1397,-0.148,-0.1541,-0.1595,-0.1675,-0.171,-0.1773,-0.1792,-0.1833,-0.1838,-0.1827,-0.1763,-0.1826,-0.1703,-0.1682,-0.1801,-0.1799,-0.1767,-0.1761,-0.182,-0.182,-0.182,-0.182,0,-0.108,-0.1162,-0.1222,-0.1336,-0.1374,-0.1412,-0.1528,-0.1563,-0.1656,-0.1703,-0.1726,-0.1795,-0.1797,-0.1816,-0.1813,-0.1756,-0.1716,-0.1677,-0.1803,-0.179,-0.1587,-0.1586,-0.1549,-0.1545,-0.1541,-0.1538,-0.1536,0,-0.1052,-0.1079,-0.1193,-0.1223,-0.1278,-0.1359,-0.1404,-0.1526,-0.1563,-0.1683,-0.1683,-0.1734,-0.1759,-0.1663,-0.1694,-0.1653,-0.1633,-0.1602,-0.1596,-0.1575,-0.1559,-0.1563,-0.1566,-0.153,-0.1529,-0.1528,-0.1527,0,-0.0985,-0.103,-0.1076,-0.1135,-0.1192,-0.1249,-0.1331,-0.1352,-0.1482,-0.1585,-0.1597,-0.1598,-0.1596,-0.1584,-0.1558,-0.153,-0.1616,-0.1564,-0.1572,-0.1566,-0.1551,-0.154,-0.1547,-0.1515,-0.1516,-0.1518,-0.1518,0,-0.0927,-0.0933,-0.0994,-0.1033,-0.1092,-0.1115,-0.118,-0.1237,-0.1298,-0.1448,-0.1443,-0.1504,-0.158,-0.1519,-0.1495,-0.1456,-0.1438,-0.1388,-0.1404,-0.1418,-0.1373,-0.1336,-0.1209,0,0,0,0,0,-0.0871,-0.0868,-0.0891,-0.093,-0.0978,-0.1016,-0.1116,-0.1189,-0.1323,-0.1293,-0.1373,-0.1369,-0.1353,-0.1382,-0.1312,-0.1419,-0.143,-0.133,-0.1378,-0.1446,-0.146,-0.1418,0,0,0,0,0,0,-0.0836,-0.0854,-0.0857,-0.083,-0.0834,-0.0883,-0.094,-0.1034,-0.1037,-0.1175,-0.1171,-0.1275,-0.1272,-0.1368,-0.128,-0.1286,-0.1285,-0.1378,-0.1374,-0.1437,-0.145,-0.1462,-0.1424,0,0,0,0,0]},{"header":{"parameterUnit":"m.s-1","parameterCategory":2,"la1":30.2991,"la2":30.254,"lo1":-89.0895,"lo2":-89.0444,"dy":0.0017,"dx":0.0017,"nx":28,"ny":28,"refTime":"2026-02-16T09:00:00:Z","depth":"4","parameterNumber":3,"parameterNumberName":"V-component_of_CURRENTS"},"data":[0,0,0,0,0,0,0,0,0,0,0,0,0,0,0,0,0,0,0,0,0,0,0,0,0,0,0,0,0,0,0,0,0,0,0,0,0,0,0,0,0,0,0,0,0,0,0,0,0,0,0,0,0,0,0,0,0,0,-0.0244,-0.0244,0,-0.0197,-0.0197,-0.0196,-0.015,-0.015,-0.015,-0.0149,-0.0069,-0.0067,-0.0065,0,0,0,0,0,0,0,0,0,0,0,0,0,-0.0238,-0.0238,-0.0244,-0.0244,-0.0244,-0.0198,-0.0197,-0.0196,-0.015,-0.015,-0.015,-0.0149,-0.0069,-0.0067,-0.0065,0,0,0,0,0,0,0,0,0,0,0,0,0,-0.0219,-0.0239,-0.0244,-0.0217,-0.0214,-0.0198,-0.0197,-0.0195,-0.015,-0.015,-0.0149,-0.0149,-0.007,-0.0067,-0.0065,-0.0059,0,0,-0.0057,-0.0055,0,0,0,0,0,0,0,0,-0.022,-0.0219,-0.0222,-0.0219,-0.0216,-0.0181,-0.0165,-0.0149,-0.0151,-0.0172,-0.0149,-0.0149,-0.0105,-0.01,-0.0089,-0.0055,-0.0052,-0.0056,-0.0055,-0.0053,-0.0053,0,0,0,0,0,0,0,-0.0221,-0.022,-0.0223,-0.0221,-0.0218,-0.0188,-0.0185,-0.0161,-0.014,-0.017,-0.0167,-0.0166,-0.0103,-0.0092,-0.0087,-0.0051,-0.0056,-0.0054,-0.0052,-0.0051,0.0015,0.0015,0,0,0,0,0,0,-0.0236,-0.0222,-0.0225,-0.0222,-0.0219,-0.0189,-0.0185,-0.0191,-0.0141,-0.0134,-0.0167,-0.0164,-0.0097,-0.009,-0.0084,-0.006,-0.0053,-0.0051,-0.0049,0.0015,0.0015,0.0015,0,0,0,0,0,0,-0.0236,-0.0237,-0.0227,-0.0222,-0.0219,-0.0191,-0.0197,-0.019,-0.018,-0.0139,-0.013,-0.0164,-0.0096,-0.0088,-0.0056,-0.0057,-0.005,-0.0047,0.0015,0.0015,0.0015,-0.0022,0,0,0,0,0,0,-0.0236,-0.0237,-0.0246,-0.0224,-0.022,-0.0223,-0.0197,-0.019,-0.0182,-0.0178,-0.0133,-0.0125,-0.0095,-0.006,-0.0053,-0.0053,-0.0045,0.0014,0.0015,0.0015,-0.0021,-0.0023,-0.0025,0,0,0,0,0,-0.0236,-0.0251,-0.0247,-0.0248,-0.0234,-0.0224,-0.0219,-0.0194,-0.0182,-0.0182,-0.0143,-0.0127,-0.0053,-0.0057,-0.0049,-0.0049,0.0014,0.0015,0.0015,-0.002,-0.0022,-0.0024,0,0,0,0,0,0,-0.0253,-0.0248,-0.0243,-0.0256,-0.0245,-0.0217,-0.0216,-0.0201,-0.0171,-0.0166,-0.0123,-0.0112,-0.0084,-0.0063,-0.0068,-0.0029,-0.0018,-0.0016,-0.0047,-0.0049,-0.0051,-0.0072,-0.0043,0,0,0,0,0,-0.0264,-0.0274,-0.0261,-0.0272,-0.0269,-0.0244,-0.0238,-0.0223,-0.0195,-0.0182,-0.0151,-0.0114,-0.0077,-0.0061,-0.0029,-0.001,0.0018,-0.0005,-0.0007,-0.0009,-0.002,0.0032,0.0033,0.0016,0.0016,0.0016,0,0,-0.0275,-0.0273,-0.0279,-0.0276,-0.0264,-0.0264,-0.0238,-0.0234,-0.023,-0.0178,-0.0161,-0.0121,-0.0073,-0.0046,-0.0032,-0.0028,0.0011,-0.0008,-0.001,-0.0021,0.0032,0.0034,0.0036,0.0016,0.0016,0.0016,0,0,-0.0297,-0.03,-0.0312,-0.0307,-0.0298,-0.0283,-0.0286,-0.0263,-0.0249,-0.023,-0.0185,-0.0144,-0.0104,-0.0062,-0.0036,-0.0032,0.0,-0.0026,-0.0053,-0.0003,-0.0001,0.0001,0.0038,0.0044,-0.0028,-0.0028,-0.0028,0,-0.0309,-0.0324,-0.0313,-0.032,-0.0321,-0.0296,-0.0305,-0.0288,-0.0258,-0.0245,-0.0232,-0.015,-0.011,-0.0061,-0.0058,-0.0036,-0.001,-0.0048,-0.0006,-0.0003,-0.0001,0.0038,0.0044,-0.003,-0.003,-0.003,-0.0029,0,-0.0333,-0.0347,-0.0354,-0.0357,-0.0356,-0.0361,-0.0342,-0.0335,-0.0316,-0.0293,-0.025,-0.0187,-0.0139,-0.0116,-0.0087,-0.0047,-0.0035,-0.0013,-0.0002,-0.0001,0.0039,0.0047,-0.0032,-0.0032,-0.0031,-0.0031,0,0,-0.0354,-0.0369,-0.0371,-0.0384,-0.0377,-0.0381,-0.0377,-0.0364,-0.0359,-0.0319,-0.0301,-0.0229,-0.0195,-0.0163,-0.0112,-0.0069,-0.0023,-0.0044,-0.004,-0.0012,0.0079,0.0059,0.0066,0.0006,0.0007,0.0008,0.0099,0,-0.0375,-0.0403,-0.0401,-0.0428,-0.0442,-0.0426,-0.0426,-0.0409,-0.0386,-0.0362,-0.0291,-0.0253,-0.0212,-0.0184,-0.0135,-0.0047,-0.0005,-0.005,0.0077,0.0081,0.0059,0.0073,0.0011,0.0105,0.0107,0.0108,0.0109,0,-0.0395,-0.0414,-0.0447,-0.047,-0.0474,-0.0485,-0.0485,-0.0481,-0.0438,-0.0416,-0.0365,-0.0311,-0.0235,-0.0204,-0.0066,-0.0098,-0.0023,0.0043,0.0049,0.0045,0.0075,0.0106,0.0123,0.0122,0.0121,0.012,0.0119,0,-0.0418,-0.0447,-0.0478,-0.0486,-0.0503,-0.0515,-0.052,-0.0497,-0.0496,-0.0448,-0.0434,-0.034,-0.0287,-0.0182,-0.0057,-0.0057,0.009,0.0114,0.0168,0.0168,0.0174,0.0171,0.0204,0.0204,0.0204,0.0203,0.0203,0,-0.0443,-0.047,-0.0495,-0.0515,-0.0555,-0.055,-0.0576,-0.0566,-0.0542,-0.0535,-0.0464,-0.043,-0.028,-0.018,-0.0068,0.0066,0.0087,0.016,0.019,0.0157,0.0151,0.018,0.0175,0.0207,0.0206,0.0205,0.0205,0,-0.0468,-0.0481,-0.0526,-0.0557,-0.0571,-0.06,-0.0627,-0.0638,-0.061,-0.0596,-0.0582,-0.0485,-0.0353,-0.0208,-0.0027,0.0051,0.0184,0.0226,0.0166,0.0193,0.0231,0.0224,0.0298,0.0298,0.0298,0.0298,0.0299,0,-0.0483,-0.0507,-0.0564,-0.0598,-0.062,-0.0659,-0.0684,-0.0676,-0.068,-0.0627,-0.0617,-0.05,-0.0419,-0.0182,-0.0035,0.0172,0.0199,0.0259,0.0252,0.0218,0.0241,0.0234,0.0227,0.0299,0.0299,0.0299,0.0299,0,-0.0512,-0.0534,-0.057,-0.0641,-0.0685,-0.0731,-0.076,-0.0765,-0.0739,-0.0717,-0.0632,-0.051,-0.0365,-0.0185,-0.003,0.0118,0.0216,0.026,0.0262,0.0255,0.022,0.0241,0.0234,0.0299,0.0299,0.0299,0.0299,0,-0.053,-0.0564,-0.0612,-0.0672,-0.0736,-0.0778,-0.0792,-0.078,-0.0772,-0.0701,-0.0673,-0.0514,-0.0417,-0.0213,-0.007,0.007,0.0109,0.0149,0.0157,0.0158,0.0085,0.0017,0.0059,0,0,0,0,0,-0.0541,-0.0576,-0.0638,-0.07,-0.0765,-0.0798,-0.083,-0.0828,-0.0799,-0.0743,-0.0703,-0.0565,-0.0343,-0.0252,-0.0112,-0.0074,0.0123,0.0091,0.0171,0.03,0.03,0.0235,0,0,0,0,0,0,-0.0547,-0.0602,-0.0633,-0.0709,-0.0756,-0.0817,-0.0839,-0.0822,-0.0782,-0.0735,-0.0616,-0.0543,-0.0329,-0.0417,-0.0112,-0.0071,-0.0005,0.0199,0.0202,0.03,0.03,0.03,0.0233,0,0,0,0,0]}]]